Location: St. Louis
(38.6270°N, 90.1994°W)
Time: 09:50:47
(UTC-06:00)

Vanguard 2 Rocket - Pass Details

Date: 05 December 2021
Orbit: 553 x 3325 km, 32.9° (Epoch: 23 January)

Event Time Altitude Azimuth Distance (km) Brightness Sun altitude
Rises 19:09:16 0° 259° (W) 3,390 11.1 -28.6°
Reaches altitude 10° 19:11:20 10° 255° (WSW) 2,668 10.2 -29.0°
Maximum altitude 19:17:41 60° 176° (S) 1,511 7.8 -30.2°
Enters shadow 19:19:30 51° 134° (SE) 1,780 8.0 -30.6°
Drops below altitude 10° 19:29:04 10° 101° (E) 4,634 - -32.4°
Sets 19:33:48 0° 99° (E) 6,087 - -33.4°
